Location: Nitra
(0.0000°N, 18.0833°E)
Time: 12:31:10
(UTC+02:00)

Altair - All Passes

Search period start: 29 March 2023 00:00
Search period end: 08 April 2023 00:00
Orbit: 1501 x 1682 km, 47.2° (Epoch: 28 March)

Date Brightness Start Highest point End Pass type
(mag) Time Alt. Az. Time Alt. Az. Time Alt. Az.
29 Mar - 00:06:14 10° SSE 00:11:06 14° SE 00:15:52 10° ESE night (unlit)
29 Mar - 02:06:22 10° SW 02:16:23 76° SE 02:26:01 10° NE visible
29 Mar - 04:13:56 10° W 04:21:03 22° NW 04:28:02 10° N visible
29 Mar - 12:52:48 10° N 13:00:39 31° NE 13:08:40 10° ESE daylight
29 Mar - 14:56:06 10° NW 15:05:09 55° SW 15:14:36 10° SSE daylight
29 Mar - 23:42:07 10° SSE 23:45:45 12° SE 23:49:19 10° ESE night (unlit)
30 Mar - 01:41:12 10° SSW 01:51:11 68° SE 02:00:47 10° NE night (unlit)
30 Mar - 03:48:09 10° W 03:55:49 26° NW 04:03:19 10° N visible
30 Mar - 12:28:00 10° N 12:35:27 27° NE 12:43:02 10° ESE daylight
30 Mar - 14:30:49 10° NW 14:39:58 62° SW 14:49:30 10° SSE daylight
30 Mar - 16:44:56 10° SW 16:45:27 10° SW 16:45:58 10° SW daylight
30 Mar - 23:18:59 10° SE 23:20:22 10° SE 23:21:45 10° SE night (unlit)
31 Mar - 01:16:04 10° SSW 01:25:58 61° SE 01:35:30 10° NE night (unlit)
31 Mar - 03:22:26 10° WSW 03:30:35 29° NW 03:38:32 10° N visible
31 Mar - 12:03:15 10° N 12:10:14 24° NE 12:17:18 10° E daylight
31 Mar - 14:05:34 10° NW 14:14:46 69° SW 14:24:23 10° SSE daylight
31 Mar - 16:16:51 10° WSW 16:20:05 12° SW 16:23:22 10° SSW daylight
01 Apr - 00:50:58 10° SSW 01:00:45 55° SE 01:10:11 10° NE night (unlit)
01 Apr - 02:56:48 10° WSW 03:05:21 33° NW 03:13:41 10° N visible
01 Apr - 11:38:34 10° N 11:45:00 21° NE 11:51:31 10° E daylight
01 Apr - 13:40:21 10° NW 13:49:36 77° SW 13:59:13 10° SE daylight
01 Apr - 15:50:19 10° WSW 15:54:45 14° SW 15:59:18 10° SSW daylight
02 Apr - 00:25:53 10° SSW 00:35:31 49° SE 00:44:50 10° ENE night (unlit)
02 Apr - 02:31:13 10° WSW 02:40:09 37° NW 02:48:48 10° NNE visible
02 Apr - 11:13:59 10° N 11:19:46 18° NE 11:25:35 10° E daylight
02 Apr - 13:15:10 10° NW 13:24:25 85° SW 13:34:02 10° SE daylight
02 Apr - 15:24:07 10° W 15:29:27 16° SW 15:34:54 10° S daylight
03 Apr - 00:00:51 10° SSW 00:10:17 44° SE 00:19:26 10° ENE night (unlit)
03 Apr - 02:05:42 10° WSW 02:14:55 42° NW 02:23:52 10° NNE visible
03 Apr - 10:49:32 10° NNE 10:54:30 15° NE 10:59:30 10° E daylight
03 Apr - 12:50:01 10° NW 12:59:15 86° NE 13:08:50 10° SE daylight
03 Apr - 14:58:08 10° W 15:04:09 19° SW 15:10:20 10° S daylight
03 Apr - 23:35:50 10° SSW 23:45:03 39° SE 23:53:59 10° ENE night (unlit)
04 Apr - 01:40:13 10° WSW 01:49:42 47° NW 01:58:54 10° NNE night (unlit)
04 Apr - 10:25:19 10° NNE 10:29:14 13° NE 10:33:09 10° ENE daylight
04 Apr - 12:24:54 10° NW 12:34:06 77° NE 12:43:36 10° SE daylight
04 Apr - 14:32:18 10° W 14:38:52 21° SW 14:45:39 10° S daylight
04 Apr - 23:10:52 10° SSW 23:19:48 35° SE 23:28:29 10° ENE night (unlit)
05 Apr - 01:14:48 10° SW 01:24:29 53° NW 01:33:54 10° NNE night (unlit)
05 Apr - 10:01:39 10° NNE 10:03:56 11° NE 10:06:15 10° ENE daylight
05 Apr - 11:59:48 10° NNW 12:08:55 69° NE 12:18:20 10° SE daylight
05 Apr - 14:06:34 10° W 14:13:37 24° SW 14:20:54 10° S daylight
05 Apr - 22:45:56 10° S 22:54:32 31° SE 23:02:54 10° ENE night (unlit)
06 Apr - 00:49:24 10° SW 00:59:17 59° NW 01:08:52 10° NNE night (unlit)
06 Apr - 11:34:44 10° NNW 11:43:46 62° NE 11:53:02 10° SE daylight
06 Apr - 13:40:55 10° WNW 13:48:23 27° SW 13:56:05 10° S daylight
06 Apr - 22:21:04 10° S 22:29:16 27° SE 22:37:17 10° ENE visible
07 Apr - 00:24:03 10° SW 00:34:04 66° NW 00:43:47 10° NNE night (unlit)
07 Apr - 02:36:34 10° WNW 02:39:16 11° NW 02:41:57 10° NNW night (unlit)
07 Apr - 11:09:43 10° NNW 11:18:36 55° NE 11:27:41 10° SE daylight
07 Apr - 13:15:21 10° WNW 13:23:09 31° SW 13:31:12 10° S daylight
07 Apr - 21:56:14 10° S 22:03:59 24° SE 22:11:34 10° E visible
